Theta_e
289 289 289 288 289 289 290 290 289 289 289 289 289 288 288 289 289 289 290 290 291 291 292 292 293 292 292 292 293 293 293 294 294 294 294 294 295 296 296 296 296 296 296 296 296 296 296 296 296 296 296 295 295 295 295 295 294 294 293 293 293 292 291 290 289 287 286 285 285
288 287 287 286 287 288 289 289 289 289 289 290 289 289 288 289 289 289 290 290 291 292 293 293 293 292 292 292 293 293 293 294 294 294 294 294 295 295 296 296 296 296 295 295 296 296 296 296 296 296 296 295 295 294 294 294 294 294 293 292 292 292 290 289 288 287 286 285 285
287 286 286 286 287 288 289 290 289 288 287 288 288 288 288 289 290 290 290 290 291 291 292 293 292 292 292 292 293 293 293 293 294 294 294 294 295 295 295 296 295 295 295 296 296 296 296 295 295 295 295 295 294 294 294 294 294 293 293 292 292 291 290 289 288 287 287 286 286
286 286 286 287 287 287 288 289 287 287 287 288 287 287 287 289 289 290 290 290 290 291 292 292 292 292 292 292 293 293 293 293 294 294 295 295 295 295 295 295 296 296 296 296 296 295 295 294 295 295 294 294 294 294 294 295 294 293 293 292 291 290 289 289 288 288 288 288 287
286 286 286 287 286 286 286 286 286 286 287 287 288 288 288 288 289 289 289 290 291 291 291 292 293 293 293 293 293 294 294 294 293 294 295 295 295 295 295 295 295 295 295 295 294 294 294 294 295 295 295 295 294 294 294 294 293 292 292 291 290 289 289 289 289 288 288 288 287
287 286 286 285 285 285 285 285 285 285 286 286 286 287 287 289 289 290 290 291 291 291 291 292 293 293 293 293 293 294 294 294 294 294 295 295 295 295 294 294 294 293 293 293 293 294 294 295 295 295 295 295 294 294 294 293 292 291 290 289 289 289 289 288 288 288 288 287 287
286 286 285 285 285 285 285 285 285 285 285 285 286 286 287 287 288 288 289 290 291 291 292 293 293 294 294 294 294 294 294 294 294 294 294 294 294 294 294 294 294 294 294 294 294 294 295 295 295 294 294 293 294 293 293 292 290 289 288 288 288 288 288 287 287 287 287 286 285
285 285 285 284 285 284 285 285 285 285 286 286 286 286 286 286 287 288 289 290 291 291 292 293 294 294 294 294 293 293 293 293 293 293 293 294 294 294 294 294 294 294 294 294 294 294 294 294 294 294 293 292 292 292 291 289 288 287 287 287 287 287 286 285 285 285 285 284 284
285 284 284 284 284 284 284 284 284 285 285 286 285 285 286 286 287 288 289 290 290 291 292 293 292 292 292 292 291 291 291 291 291 291 291 292 293 293 294 294 294 294 294 294 294 294 294 293 293 292 292 291 290 289 288 287 286 285 285 285 285 284 284 283 283 283 283 283 283
285 284 284 284 284 284 284 284 284 284 285 285 285 285 285 286 287 288 289 290 290 291 292 291 291 291 290 290 289 289 289 289 289 290 290 291 292 293 293 293 293 293 293 293 293 293 292 291 290 289 288 288 287 286 285 285 284 283 283 283 282 282 281 280 281 281 281 281 281
284 283 283 283 284 284 284 284 284 284 284 285 285 285 285 286 287 288 288 289 289 290 290 290 290 290 289 288 288 288 288 288 289 289 290 291 291 291 292 292 291 291 291 291 290 289 288 287 286 286 285 285 284 284 283 282 282 281 281 280 280 280 280 280 279 279 280 280 280
283 283 283 283 283 283 284 284 284 284 284 285 285 285 285 286 286 287 287 288 289 288 288 288 288 288 288 287 287 287 287 288 289 289 289 290 290 290 290 290 290 289 289 288 287 287 286 285 284 284 283 283 283 282 282 281 281 281 280 279 279 279 279 279 279 279 279 279 279
283 283 282 282 282 283 283 284 284 283 284 284 284 284 285 285 286 286 287 287 287 287 287 286 286 287 287 286 286 287 287 288 288 288 288 288 289 289 288 288 288 287 287 286 286 285 284 283 283 283 282 282 282 282 281 281 281 280 280 279 279 279 279 279 279 278 278 278 278
282 282 282 282 282 282 283 283 284 284 284 284 284 284 285 285 285 285 286 286 286 286 285 285 285 285 285 286 286 286 287 287 287 287 287 287 287 287 286 286 285 285 285 284 284 283 283 282 282 282 282 281 281 281 280 280 280 280 280 279 279 279 279 279 279 278 278 278 278
282 282 282 282 282 283 283 283 284 284 284 284 284 285 285 285 285 285 286 287 286 286 285 285 285 284 285 285 285 285 286 286 286 286 285 285 285 285 285 284 284 283 283 283 283 283 283 282 282 281 281 281 281 281 280 280 280 280 280 280 280 279 279 279 279 279 279 279 279
283 282 282 282 283 283 283 284 284 284 284 285 285 285 285 286 286 287 287 287 287 286 286 285 285 285 285 285 286 285 285 285 285 284 284 284 284 284 284 284 283 283 283 283 283 283 283 283 282 282 282 282 281 281 281 280 280 280 280 280 280 280 280 280 280 279 279 280 279
283 283 283 282 283 283 284 284 284 284 285 285 285 285 285 286 287 287 287 287 287 287 286 286 286 286 286 286 286 285 285 285 285 284 284 284 284 284 284 284 283 283 283 283 283 283 283 283 283 283 282 282 282 282 281 281 281 281 281 281 281 281 281 281 281 280 280 280 280
283 283 283 283 283 284 284 284 284 284 285 285 285 285 286 286 287 287 287 287 287 287 287 287 287 287 287 286 286 285 285 285 285 284 284 284 284 284 284 284 284 284 284 284 284 284 284 284 283 283 283 282 282 282 282 281 281 281 281 281 281 281 281 281 281 281 281 280 280
283 283 283 283 284 284 284 284 284 285 285 285 285 285 286 286 286 286 286 286 287 288 288 288 287 287 286 286 285 285 285 284 284 284 284 283 283 283 284 284 284 284 284 284 284 284 284 284 283 283 283 282 282 282 281 281 281 281 281 281 281 281 280 280 280 280 280 280 280
284 284 284 284 284 284 284 285 285 285 285 285 285 285 286 286 286 286 286 287 287 288 288 287 286 286 286 285 285 284 284 284 283 283 283 283 283 283 283 284 283 283 283 283 283 283 283 282 282 282 281 281 281 280 280 280 280 280 280 279 279 279 279 279 279 279 279 279 279
285 285 285 285 284 284 284 285 285 285 285 285 285 285 285 285 286 286 286 287 287 287 286 286 285 285 285 284 284 284 283 283 283 283 283 283 283 283 283 283 283 282 282 282 282 281 281 281 281 280 280 280 280 279 279 279 279 278 278 278 278 278 278 278 278 278 278 278 278
286 286 286 285 285 285 285 285 285 285 285 285 285 285 285 285 286 286 286 286 286 285 285 285 284 284 284 283 283 283 283 283 282 282 282 282 282 282 281 281 281 281 280 280 279 279 279 279 279 279 279 279 278 278 279 278 278 277 277 277 277 277 277 277 277 277 277 277 276
286 286 286 285 284 284 285 285 285 285 285 285 285 285 285 285 285 285 284 284 284 283 283 283 283 283 282 282 282 282 281 281 281 281 280 280 280 280 280 279 279 279 279 279 278 278 278 278 278 278 278 278 278 278 278 278 278 277 277 277 277 276 276 276 276 276 275 275 275
285 285 284 284 284 284 284 285 285 285 285 285 285 285 285 284 284 283 282 282 282 281 281 281 281 281 281 281 281 280 280 280 280 280 279 279 279 278 278 278 278 278 279 279 279 280 280 280 279 279 279 278 278 278 278 278 277 277 277 276 276 276 276 276 275 275 275 275 275
284 284 284 284 284 284 284 285 285 285 286 286 286 285 284 283 282 282 281 281 280 280 280 279 280 280 279 280 279 279 279 279 280 279 279 279 278 278 278 278 278 279 280 280 283 285 285 284 283 282 280 280 279 279 278 278 278 277 277 277 276 276 276 276 275 275 275 275 275
284 284 284 284 284 284 285 285 285 286 286 286 285 284 284 282 281 281 280 280 279 279 279 279 279 279 279 279 278 278 278 278 279 279 279 279 278 278 279 279 280 281 282 284 285 286 287 287 286 284 282 281 280 279 279 278 277 277 276 276 276 276 276 276 276 276 276 277 277
284 283 284 284 285 285 285 285 286 286 286 285 285 284 283 281 281 280 280 279 279 279 279 279 279 279 280 279 278 278 279 279 279 279 279 279 279 280 281 281 281 282 283 285 285 286 286 286 286 286 284 282 280 279 278 277 276 276 275 275 275 275 275 276 276 277 277 278 278
284 284 284 285 285 285 285 285 286 285 285 285 283 283 282 281 280 280 279 279 279 279 279 280 280 280 280 279 279 279 280 280 280 281 281 281 281 282 282 282 282 282 283 285 285 285 286 286 286 286 286 283 279 277 277 276 275 275 274 274 274 274 275 276 276 277 277 278 278
284 284 284 284 285 285 285 285 285 284 284 283 283 282 282 281 280 280 280 280 280 280 280 280 281 281 281 280 280 281 281 281 282 283 284 284 284 284 283 282 282 282 283 284 285 285 285 286 286 286 286 285 280 277 275 275 275 275 275 275 275 276 276 277 277 277 277 277 277
283 283 283 284 284 284 284 283 283 283 283 283 283 282 282 281 281 281 281 281 281 281 281 281 281 282 282 282 282 282 283 284 285 285 285 285 284 284 283 282 281 281 282 283 284 284 285 286 286 286 286 286 281 278 275 275 275 275 275 276 276 276 276 276 276 276 276 277 277
282 282 282 282 282 282 282 281 282 282 282 282 282 281 281 282 282 281 281 281 281 281 281 281 282 282 282 282 283 285 286 286 286 286 285 285 284 283 282 281 280 280 281 283 283 284 285 286 286 286 285 285 282 278 276 275 275 275 275 276 276 276 276 276 276 276 276 276 277
282 282 282 281 281 281 280 280 281 281 281 281 281 281 282 282 281 281 280 280 280 281 281 281 282 283 284 285 286 286 286 286 286 286 285 284 283 282 280 280 278 278 280 282 283 284 285 285 285 285 285 285 282 279 276 275 274 274 275 275 275 275 275 276 276 276 276 276 277
281 281 281 280 280 280 280 280 280 281 281 282 282 282 282 281 281 281 281 281 281 281 282 283 284 285 286 286 286 286 286 286 285 285 284 282 281 279 278 278 277 278 280 282 283 284 285 285 285 284 284 285 282 278 276 274 274 274 275 275 275 275 275 275 276 277 277 277 278
280 280 280 280 280 280 280 280 281 281 282 282 282 282 282 281 281 281 281 281 282 284 285 286 286 286 286 286 286 285 285 285 284 283 282 280 278 276 275 275 274 276 280 282 283 284 284 284 284 284 284 284 281 277 275 274 274 274 274 275 275 277 278 278 278 278 278 278 278
279 280 280 280 281 281 281 281 282 282 282 283 282 282 282 282 282 282 283 284 285 286 286 287 286 286 286 285 285 284 283 283 282 281 278 276 274 273 272 272 272 275 279 282 283 284 284 284 284 284 284 283 279 276 274 273 273 274 274 275 276 278 279 279 279 279 278 278 278
279 280 280 281 282 283 283 283 283 283 283 283 282 282 282 282 283 284 285 286 286 286 286 286 285 285 284 283 282 281 280 279 277 276 274 272 271 270 270 271 271 274 279 282 283 283 284 284 284 284 283 281 277 275 274 273 274 274 274 275 277 279 279 278 279 279 279 279 279
280 280 282 283 283 284 284 284 284 283 283 282 282 282 283 284 285 286 286 286 285 284 284 283 282 281 280 279 278 277 275 274 273 272 272 271 270 270 269 270 270 273 276 280 282 283 283 283 283 283 282 279 276 274 274 274 274 274 274 276 278 279 279 279 279 279 279 279 280
281 282 283 284 284 284 283 283 283 283 283 283 283 283 284 284 284 284 284 283 283 282 281 280 279 278 276 275 274 273 272 271 271 271 270 270 269 269 269 269 270 272 275 279 281 282 283 283 283 283 281 278 276 274 274 274 274 274 275 277 278 278 278 278 278 279 279 279 280
283 284 284 284 284 283 283 283 283 283 283 283 283 283 283 283 283 283 282 280 280 278 277 276 275 274 273 272 271 271 271 270 270 270 269 269 269 270 270 269 270 272 274 278 280 281 282 282 283 283 282 279 276 274 274 275 275 275 276 277 278 278 278 278 278 278 279 278 281
285 285 285 284 284 284 283 284 283 283 283 283 283 283 282 282 281 281 279 276 275 274 274 273 273 272 272 272 270 270 270 269 269 268 268 268 269 272 273 271 270 271 273 277 279 281 282 282 282 283 282 280 276 275 275 276 276 276 277 277 278 278 278 278 278 279 279 279 281
286 286 285 285 284 284 284 284 283 283 283 283 282 281 281 279 278 277 275 273 272 271 271 271 271 271 271 271 269 269 268 269 269 268 268 268 269 271 273 270 270 270 271 274 278 280 281 282 282 282 282 280 277 276 275 276 277 277 277 278 278 278 278 279 279 280 280 280 279
Wind_Speed
2 2 2 2 2 2 2 2 2 2 2 1 1 1 1 1 2 2 1 1 1 2 2 2 3 3 4 5 7 7 7 7 8 8 8 8 8 8 8 9 9 9 8 7 6 5 5 4 3 3 2 2 2 2 2 2 2 1 1 2 3 4 5 6 7 8 8 8 6
2 2 2 2 1 1 1 2 2 2 1 1 1 1 1 2 1 1 1 1 1 2 2 3 3 4 5 5 6 7 7 8 8 8 8 8 8 8 8 7 7 7 7 6 5 4 3 3 3 2 2 2 2 2 2 2 2 2 2 4 4 4 4 6 7 8 8 7 5
2 2 1 1 1 1 1 2 1 1 1 1 1 1 1 1 1 0 1 1 2 2 2 3 3 4 4 5 5 6 7 7 7 7 7 7 7 6 6 5 5 6 5 5 5 4 4 4 3 2 2 2 2 2 2 1 2 2 3 5 4 4 4 5 6 6 5 4 4
2 2 1 1 2 2 2 1 1 1 2 2 2 2 2 1 1 0 1 2 2 2 2 3 3 3 4 5 6 6 7 7 7 7 7 6 5 5 4 4 4 5 5 6 5 5 4 3 2 2 1 2 1 1 1 1 2 3 4 5 5 5 5 5 5 4 3 3 3
2 2 2 2 2 2 1 1 0 1 2 2 2 2 2 1 1 1 1 2 2 2 2 2 3 3 4 5 6 7 7 7 7 7 6 6 5 5 5 4 5 5 5 5 5 4 4 3 2 2 1 1 0 1 1 2 3 4 4 4 4 4 4 4 3 3 3 3 2
2 2 2 1 1 1 0 1 1 1 1 1 1 2 2 2 2 2 2 3 3 3 3 3 3 3 4 4 5 5 5 5 5 5 5 5 5 5 6 6 6 5 5 4 4 4 4 3 2 1 1 0 1 2 4 5 6 6 6 5 4 4 3 3 3 2 2 2 2
3 2 2 1 1 1 1 1 1 1 1 1 1 2 2 2 2 2 3 3 3 2 2 2 3 3 3 4 4 4 4 4 4 4 4 4 4 4 4 5 5 5 5 5 5 4 4 3 2 2 2 2 3 5 8 8 7 6 6 5 4 3 3 3 2 2 2 2 3
2 2 2 1 2 2 2 2 1 1 1 1 1 1 1 1 2 2 3 3 2 2 1 1 2 3 4 4 4 4 4 4 3 3 3 4 4 4 4 4 4 5 5 5 5 5 4 4 3 4 4 5 5 6 7 6 5 4 4 4 3 2 1 2 2 2 2 3 3
2 2 2 2 2 2 2 1 1 0 1 1 1 1 1 1 2 2 3 2 2 2 1 2 2 3 4 4 4 4 4 4 4 3 3 4 4 4 4 4 4 5 5 5 6 6 6 5 5 5 5 4 4 3 3 2 2 3 3 3 2 1 1 1 1 2 2 3 4
2 2 2 3 2 2 1 1 0 1 1 2 1 1 1 1 2 2 2 2 2 2 2 2 3 3 4 4 4 4 4 4 4 4 4 4 4 5 5 5 5 5 5 5 5 6 5 4 3 3 2 2 2 2 2 1 2 3 3 2 2 1 1 1 1 2 3 3 5
1 1 2 1 1 1 1 0 0 1 1 2 1 1 1 2 2 2 2 2 3 3 3 2 3 4 4 3 3 3 3 3 3 3 4 4 4 5 5 5 5 5 5 4 3 3 2 2 1 2 2 2 2 2 2 1 2 2 2 2 2 2 2 2 2 2 3 4 5
1 1 0 0 0 1 1 1 0 1 1 2 2 2 2 2 2 2 2 2 3 3 2 2 3 3 3 3 3 2 2 3 3 3 4 4 4 4 4 4 4 4 3 3 1 1 1 1 1 2 2 2 1 1 2 2 2 2 2 2 2 2 3 4 3 3 3 3 4
1 1 1 1 1 1 1 1 1 1 1 2 1 2 2 2 2 2 3 3 3 3 2 1 1 2 3 2 2 2 2 3 3 3 3 4 4 3 3 3 3 3 2 1 0 1 1 1 1 2 2 2 1 1 2 2 2 3 3 2 2 3 4 5 4 4 3 3 4
1 1 1 1 1 1 1 1 1 1 2 2 2 2 2 2 2 2 3 4 3 3 2 1 1 1 2 3 2 3 3 3 3 3 3 3 3 3 3 3 2 2 1 1 0 0 1 1 1 1 2 2 2 2 2 2 3 3 3 3 4 4 5 6 5 4 4 4 5
1 1 1 1 1 2 2 2 2 2 2 2 2 2 2 2 2 2 3 4 4 3 2 2 1 2 2 3 3 3 3 3 3 2 2 2 2 2 2 2 1 1 1 1 0 0 1 1 2 2 2 2 2 2 2 3 3 4 4 5 5 6 6 6 6 5 5 6 6
1 1 1 1 2 2 2 3 2 2 3 3 3 2 2 2 2 3 3 4 3 3 2 3 2 2 2 3 3 2 2 2 2 2 2 2 2 2 1 1 1 1 1 1 0 1 1 2 2 2 2 3 3 3 3 3 4 4 5 5 6 6 6 7 6 6 6 7 6
2 2 2 2 3 3 3 3 3 3 3 3 3 3 3 3 3 3 3 4 3 3 3 3 3 2 2 2 1 1 1 1 1 1 1 1 1 2 2 2 2 1 1 1 1 1 1 2 2 2 3 3 3 3 4 4 4 5 5 6 6 6 7 7 7 7 7 7 7
2 3 3 3 4 4 4 4 4 4 4 4 4 3 3 3 3 3 3 3 3 3 3 3 3 2 1 1 1 1 1 1 1 1 1 1 2 2 2 2 2 2 1 1 1 2 2 2 2 2 2 3 3 3 4 4 4 5 5 6 6 6 7 7 7 7 7 7 8
3 3 3 4 5 5 5 5 5 5 4 4 4 3 3 3 3 3 2 2 3 3 3 3 2 1 1 1 1 1 1 1 1 1 1 1 1 2 2 2 2 2 2 2 2 2 2 2 2 2 2 2 3 3 4 4 4 5 5 6 6 6 6 7 7 6 6 7 7
4 4 5 6 6 6 6 6 6 5 4 3 3 3 3 3 3 3 3 3 2 2 1 1 1 1 1 1 2 2 1 1 1 1 2 2 2 2 2 2 2 2 2 2 2 3 3 3 2 2 2 2 3 3 4 4 4 5 5 5 5 6 6 6 6 6 6 6 7
5 6 7 7 7 7 7 6 6 5 4 4 4 4 4 3 3 3 3 2 1 1 1 1 1 1 1 2 2 2 1 1 1 1 2 2 2 2 2 2 2 2 3 3 3 3 3 3 3 3 2 3 3 3 4 4 4 4 5 5 5 6 6 6 6 6 6 6 6
7 7 7 7 7 7 6 5 5 4 4 4 4 4 4 3 3 2 1 1 1 2 1 1 1 1 1 1 1 2 2 1 1 1 1 2 2 2 2 2 2 2 3 3 3 3 3 3 3 3 2 2 3 3 4 4 4 4 5 5 5 6 6 5 5 5 5 5 6
6 6 6 5 5 5 4 4 4 4 4 5 4 4 3 3 1 1 2 3 3 2 2 1 1 0 0 0 1 1 1 2 2 2 1 1 2 2 2 2 2 2 3 4 3 3 3 3 3 3 2 2 3 3 4 4 4 4 5 5 6 6 6 5 5 5 5 5 5
6 5 4 3 3 3 3 3 3 4 4 5 4 3 2 1 2 2 3 3 3 2 1 1 1 0 0 0 0 0 0 1 2 2 2 2 2 2 2 1 2 3 4 4 4 4 3 3 3 2 2 2 3 3 3 4 4 4 5 5 6 6 6 5 5 5 5 5 6
5 4 3 2 3 3 3 4 4 5 5 5 3 2 2 3 3 3 2 2 2 2 1 1 1 0 0 0 0 1 1 1 1 1 2 2 2 2 2 2 3 3 4 4 5 6 5 4 3 3 2 2 2 3 3 3 4 4 4 5 5 6 6 6 6 6 6 6 6
4 3 3 3 3 4 4 5 6 6 5 3 2 2 3 3 3 2 2 2 2 2 1 1 1 1 1 0 1 1 1 1 0 1 1 2 3 3 2 3 3 3 3 4 6 7 8 8 7 5 3 2 2 3 3 3 3 4 4 4 5 5 6 6 7 7 6 7 7
3 3 3 3 3 4 5 5 4 2 1 2 3 3 3 2 2 3 3 2 2 2 2 1 1 1 1 1 1 2 1 1 0 1 1 2 3 3 4 4 3 3 4 6 8 9 9 9 9 8 5 3 2 2 3 3 3 4 4 4 4 5 6 7 8 8 8 8 8
4 4 4 3 3 3 2 0 2 3 4 4 3 3 2 2 3 3 3 3 2 2 2 1 1 1 1 1 1 2 2 1 1 1 1 2 3 4 5 5 4 5 6 8 10 10 10 10 10 9 7 4 2 2 2 3 3 4 4 4 5 5 6 6 7 8 8 9 8
3 2 1 1 1 2 3 4 4 4 3 2 2 2 3 3 3 3 3 2 2 2 1 1 1 0 1 1 1 2 2 2 2 2 3 4 5 5 5 5 5 6 7 10 10 11 10 10 9 9 8 7 3 2 2 3 3 3 4 4 5 5 6 6 7 7 8 8 8
2 3 3 4 4 4 4 3 2 1 2 2 3 3 3 4 3 3 3 2 1 0 1 1 0 1 1 1 1 2 2 2 3 3 4 5 5 6 6 6 5 6 8 10 10 10 10 9 9 8 8 8 5 3 2 3 3 4 4 5 5 6 6 7 7 8 8 8 8
3 3 4 4 3 2 1 1 1 1 2 2 3 4 4 4 3 2 2 1 1 1 1 1 1 1 1 1 1 2 2 3 3 4 4 5 6 6 6 6 6 6 7 10 10 10 9 9 8 9 9 10 7 4 3 3 4 4 4 5 6 6 7 7 7 8 8 9 9
2 3 3 3 2 1 0 0 1 1 3 4 4 4 4 3 2 1 1 1 1 1 0 1 1 2 2 2 2 3 3 3 4 4 4 5 5 5 5 6 6 6 7 9 10 10 9 9 9 9 10 11 8 6 4 4 4 4 5 6 7 7 7 7 7 8 8 9 9
2 3 3 3 2 2 1 1 2 3 3 4 4 3 3 2 1 1 1 1 1 1 0 1 1 2 2 3 3 3 4 4 4 5 5 5 4 4 5 5 5 6 7 9 9 9 9 9 9 10 11 12 9 6 4 4 4 4 5 6 6 7 7 8 8 8 8 9 9
2 2 3 3 2 2 2 3 3 3 3 3 3 2 2 1 1 1 1 1 1 1 1 1 1 2 2 3 3 3 4 4 5 5 5 4 3 3 4 4 4 6 8 9 9 9 9 9 10 11 12 12 8 5 4 4 4 5 6 6 7 7 8 8 8 8 9 9 8
2 3 3 3 3 3 3 3 3 3 3 3 2 1 1 1 1 1 2 2 2 1 1 2 2 2 2 3 3 3 4 4 5 5 4 3 2 3 3 4 5 6 8 9 9 9 9 10 11 12 13 11 6 4 4 4 5 6 6 7 7 8 9 9 8 8 8 8 9
3 4 4 4 4 3 3 3 3 3 3 2 1 1 1 2 2 2 2 2 1 1 2 2 2 2 2 3 3 3 3 3 4 4 3 2 2 2 3 5 5 7 9 9 9 10 10 11 12 13 12 9 5 4 4 4 5 5 6 7 8 8 9 8 8 8 8 8 9
4 5 5 4 4 3 3 3 3 2 2 1 1 2 2 2 2 2 1 1 1 1 2 2 2 2 2 2 2 2 2 2 2 3 3 2 2 2 3 4 5 7 8 10 10 11 11 12 13 13 11 7 5 4 4 4 4 5 6 7 8 8 8 8 8 8 9 9 10
4 5 5 4 4 3 2 2 2 2 2 2 2 2 2 1 1 1 1 0 1 1 1 1 1 1 1 1 2 2 2 2 2 2 3 3 2 2 3 4 5 6 8 10 11 12 12 13 14 14 12 6 5 4 4 4 4 5 5 6 7 8 8 7 7 7 8 9 12
4 4 4 4 3 3 2 2 2 2 2 2 2 1 1 1 1 1 0 0 1 1 1 1 1 1 1 1 2 3 3 2 1 2 2 3 3 3 3 4 5 6 8 10 12 13 13 13 14 15 13 8 5 4 4 4 5 5 6 6 7 7 8 7 6 7 7 9 13
5 4 4 4 3 3 3 2 2 2 2 1 1 1 1 1 1 0 1 1 1 1 1 1 1 1 1 1 2 3 3 3 2 2 2 3 4 4 4 3 5 7 8 11 12 13 13 14 15 15 13 8 5 4 4 4 5 6 6 7 7 7 8 7 7 7 7 7 9
4 4 4 3 3 3 3 2 2 2 1 1 1 1 1 1 0 0 1 1 1 1 1 1 1 1 1 1 1 2 3 3 3 2 2 3 4 4 4 3 5 6 8 9 11 13 14 14 15 15 14 9 5 4 4 4 5 7 8 8 8 8 8 8 8 7 7 7 6
Wind_Direction
240 227 215 206 207 214 227 240 238 234 231 233 243 253 258 251 257 270 291 328 68 74 69 62 63 61 60 61 68 70 68 65 64 64 65 67 71 74 76 79 84 88 93 98 102 106 110 113 110 107 105 107 115 124 135 145 154 179 217 235 240 242 243 245 248 246 243 238 236
248 237 222 211 211 222 243 260 260 260 259 251 251 261 265 261 264 287 352 34 64 78 82 77 73 72 71 70 74 77 77 74 71 68 66 65 67 71 75 81 88 96 104 110 114 113 109 103 97 98 108 125 139 150 159 167 172 200 231 241 243 244 245 246 246 244 241 238 235
253 247 233 209 206 219 238 255 275 296 313 326 327 310 291 278 284 4 61 65 64 77 88 93 87 85 84 82 82 83 83 83 80 77 74 70 69 70 76 84 96 104 109 109 105 98 95 95 97 107 129 150 157 162 170 179 187 213 233 240 242 242 242 243 240 237 233 232 225
256 246 229 209 206 210 217 233 288 318 330 339 337 320 304 299 316 33 78 79 69 74 88 104 101 98 96 96 93 92 92 92 92 91 89 86 82 81 83 92 98 98 96 93 91 93 98 108 117 133 153 164 162 167 191 222 218 226 233 236 236 235 234 235 230 224 219 218 211
261 246 228 214 209 208 204 178 338 337 335 344 337 330 325 333 347 29 71 77 74 73 77 90 96 98 100 102 102 102 103 104 106 109 111 113 116 120 120 115 104 97 95 98 107 115 124 133 142 151 157 158 177 250 252 244 238 237 237 238 233 229 226 225 221 213 205 202 197
274 270 261 241 227 213 153 83 54 357 337 351 357 355 353 356 10 47 74 83 80 75 73 78 86 90 91 91 94 97 99 102 107 114 121 128 135 135 130 122 119 119 122 127 133 139 145 149 153 159 172 212 250 248 242 236 234 232 233 235 231 226 220 217 210 197 189 190 200
286 292 299 311 352 29 36 38 31 18 9 26 39 34 24 14 30 59 78 86 84 81 82 90 98 100 97 90 88 88 90 91 96 106 116 124 127 126 125 127 132 137 142 145 148 152 157 160 165 181 199 211 224 227 226 224 222 223 226 232 232 225 212 205 193 182 181 194 211
290 300 318 349 17 30 30 25 22 23 38 65 74 70 61 49 65 79 86 88 94 103 113 112 114 114 112 108 107 107 107 108 113 120 128 132 135 137 139 144 148 154 158 160 163 169 175 178 188 199 207 210 218 222 222 219 213 217 226 234 237 229 202 188 177 176 185 200 216
295 322 354 13 20 22 20 16 20 80 107 102 101 102 106 102 100 101 103 108 123 131 130 121 120 117 116 119 123 126 128 130 137 146 153 154 156 160 163 167 170 173 177 179 182 187 191 195 199 205 209 213 221 227 227 210 208 218 228 234 237 234 211 179 174 181 193 204 220
310 350 10 14 9 5 1 349 312 143 129 116 113 113 117 114 113 117 125 137 137 135 135 140 133 126 125 130 135 138 141 147 155 165 173 176 176 177 180 183 186 189 193 196 197 198 200 203 210 218 225 228 236 245 246 219 212 220 227 229 225 232 243 240 200 198 204 212 222
322 355 8 5 347 335 319 283 214 136 121 114 114 115 115 116 124 136 144 146 137 143 153 162 145 139 139 145 147 150 154 161 169 178 187 194 195 195 196 197 197 200 203 206 201 192 186 188 211 234 245 243 237 235 230 208 201 210 220 223 210 222 239 249 227 214 213 218 225
284 302 302 246 264 266 256 222 170 120 111 113 120 124 127 133 144 150 151 144 144 154 166 171 149 146 149 154 157 160 164 173 183 190 198 207 211 213 213 213 214 215 218 220 198 162 153 176 216 243 252 254 236 211 196 186 188 201 213 218 208 221 237 248 239 230 221 221 229
225 224 219 209 206 204 196 179 151 132 127 129 141 144 148 154 161 157 149 144 147 152 159 162 151 151 154 161 166 173 182 191 198 203 210 218 223 227 230 234 234 236 239 240 185 129 142 204 233 252 262 270 260 218 187 181 188 201 214 222 223 230 239 246 244 238 231 228 235
212 210 206 196 187 182 173 161 159 155 151 154 166 166 164 168 180 169 156 144 143 144 146 145 158 172 175 175 180 189 196 203 208 215 223 234 238 243 248 254 258 263 274 302 60 108 151 211 223 232 243 258 256 236 202 186 194 205 215 223 231 237 241 246 244 241 238 239 243
230 221 206 187 181 178 172 167 171 171 169 170 183 182 177 177 186 177 158 141 143 145 147 150 179 202 205 196 194 196 200 205 210 218 231 246 253 257 262 274 291 307 323 329 7 163 179 194 200 203 212 229 240 235 219 203 206 210 218 224 231 237 243 247 245 242 240 241 246
250 239 220 196 188 185 181 177 180 178 179 181 189 190 188 186 181 167 151 143 147 151 158 169 188 206 217 218 208 201 196 200 205 216 235 258 274 289 305 321 324 319 309 295 279 229 202 193 191 192 199 214 228 229 226 219 218 221 225 228 232 237 242 246 245 243 242 241 244
246 238 225 209 202 196 192 187 186 185 186 188 193 195 193 187 175 162 155 153 154 163 177 196 200 208 219 237 234 217 193 212 233 250 278 307 331 341 342 331 312 296 281 270 270 260 242 217 197 193 197 209 222 228 230 228 229 231 233 235 236 239 241 244 243 243 243 242 243
239 233 226 221 216 208 200 192 190 190 193 194 196 196 194 187 175 170 168 168 166 176 192 212 216 220 227 254 293 328 2 356 347 352 358 3 355 341 323 305 295 286 276 265 264 262 259 250 228 213 209 216 225 231 234 234 237 239 240 241 241 242 243 244 242 242 242 242 243
230 226 222 222 221 215 206 196 193 194 195 197 195 195 193 190 180 175 178 191 191 193 200 216 232 251 291 310 334 356 14 31 15 1 350 342 325 308 298 294 294 295 291 281 273 269 266 265 257 246 238 236 240 241 242 241 243 244 245 246 246 246 246 246 243 242 241 240 242
225 222 220 219 217 213 207 200 195 193 193 193 190 190 192 195 184 181 189 207 208 202 193 211 285 325 341 355 356 356 359 25 14 337 317 308 305 300 298 303 309 311 308 299 289 281 276 272 267 259 252 248 250 252 251 249 249 250 249 249 249 248 248 247 246 244 243 241 243
229 226 224 220 214 209 206 201 195 190 187 186 187 190 193 195 190 192 197 206 193 116 73 54 22 358 352 353 345 333 321 326 337 322 312 313 311 311 316 330 329 322 314 305 295 286 279 273 267 260 252 248 248 249 252 253 255 255 254 253 252 251 250 249 249 248 247 246 246
236 232 228 222 214 208 203 198 193 186 183 184 188 190 192 195 197 196 184 90 71 66 62 55 45 24 357 336 320 311 312 325 338 339 334 332 326 332 344 359 339 319 305 295 286 280 274 269 261 252 244 242 245 247 249 250 254 258 260 261 260 260 259 257 255 254 253 252 251
241 239 235 225 215 207 200 196 192 188 186 186 189 191 192 191 173 96 63 59 62 63 61 60 58 44 349 287 295 312 328 339 344 348 355 356 343 341 342 348 317 292 281 273 265 260 258 259 254 246 236 234 244 248 250 251 255 260 265 269 271 272 272 270 266 264 262 260 258
244 244 240 227 214 206 200 194 192 193 193 192 192 189 178 134 82 69 66 65 67 68 69 69 67 83 171 174 153 110 41 4 348 343 340 345 338 326 314 299 272 262 258 255 252 252 253 248 252 250 246 243 249 253 255 257 258 263 268 274 278 281 282 282 278 274 270 267 264
245 244 239 223 211 204 199 194 196 197 199 197 188 161 108 78 76 76 77 73 71 69 65 54 32 21 33 81 110 111 104 83 9 334 324 323 315 300 278 263 253 251 252 255 269 283 294 295 295 286 271 266 266 267 267 265 263 263 266 270 276 281 286 288 285 279 273 268 265
240 236 229 217 207 202 201 201 201 200 198 187 133 88 75 74 83 86 83 73 62 51 41 25 7 357 357 14 37 47 54 70 65 300 301 304 305 300 292 281 275 273 277 288 305 314 319 319 317 311 298 282 278 278 278 276 268 265 264 266 269 274 281 286 287 284 279 274 267
232 226 222 216 208 208 210 210 206 196 148 73 66 67 71 81 84 82 76 66 50 36 23 9 352 344 354 16 22 15 5 345 300 261 270 291 309 314 315 315 314 311 313 319 323 324 323 322 319 316 310 293 278 271 271 274 272 268 265 265 266 268 273 278 282 284 284 281 276
229 223 218 211 214 220 229 292 33 40 47 54 64 75 85 87 79 73 68 61 47 32 17 354 334 332 2 25 16 1 343 328 317 308 315 322 324 324 324 323 322 320 319 323 323 322 320 318 316 314 311 303 282 256 253 261 267 268 268 267 268 269 270 273 277 281 283 284 282
248 248 245 241 347 19 28 36 39 45 57 80 96 99 93 82 76 73 69 63 52 37 12 321 304 341 19 17 1 348 337 331 331 334 335 334 330 325 322 317 315 313 315 318 318 316 314 311 309 308 308 308 292 255 243 252 263 269 271 272 272 273 274 276 279 281 283 284 284
355 12 24 30 33 35 37 42 55 81 106 113 106 98 90 84 82 81 80 79 84 159 219 227 263 13 9 357 346 339 334 329 330 332 331 328 322 317 313 310 308 307 309 312 311 309 306 304 304 305 306 308 296 275 257 258 265 271 276 278 277 277 276 277 279 279 280 281 281
49 56 58 55 50 47 45 49 87 104 104 99 96 95 95 95 97 101 115 146 193 212 212 183 44 11 350 333 331 327 325 323 324 322 318 315 310 307 305 303 301 301 303 306 303 301 300 300 302 304 304 305 298 287 272 268 269 272 275 278 278 277 276 277 276 276 276 276 277
93 96 96 96 97 98 90 33 62 78 88 94 97 99 101 107 118 142 175 193 202 206 147 40 15 348 331 321 318 316 315 314 310 307 304 301 300 298 297 296 296 296 297 299 296 294 294 297 300 302 302 303 298 291 281 275 273 273 273 273 273 273 272 273 274 274 273 273 274
114 117 120 125 131 129 109 81 83 88 92 96 100 104 110 119 144 190 208 207 192 170 103 2 330 317 311 310 309 307 304 300 296 293 292 292 293 293 293 293 292 292 292 292 289 289 291 294 298 300 301 303 301 297 290 282 279 277 276 274 272 270 268 267 269 271 273 273 274
92 103 108 113 112 108 103 103 105 104 101 99 101 107 119 137 167 213 224 213 198 195 213 255 274 281 285 289 291 293 293 291 290 290 292 297 302 301 296 291 286 284 285 285 284 286 289 293 298 301 303 305 304 301 293 287 283 280 278 276 276 275 275 274 274 275 275 275 276
73 81 84 87 96 105 114 122 119 112 104 98 101 117 154 177 197 212 222 220 218 229 247 258 262 267 273 278 279 282 285 289 292 296 302 316 323 312 296 285 281 280 281 282 284 287 291 295 300 304 306 308 305 298 289 284 282 279 278 277 279 282 284 284 285 283 280 278 278
96 99 100 103 112 122 129 132 119 108 100 101 124 173 203 214 217 222 225 227 243 265 275 276 278 282 285 288 289 289 290 293 299 304 310 324 322 300 286 281 280 281 283 286 289 292 295 298 303 306 308 308 302 293 286 281 280 279 279 281 285 288 290 289 287 285 282 279 278
120 120 120 123 128 134 135 131 116 111 118 155 189 206 217 227 235 239 242 246 276 285 288 289 293 293 294 298 302 304 304 307 306 305 305 305 288 273 272 277 280 283 286 292 295 296 298 301 304 307 309 307 301 294 288 285 284 284 285 287 291 293 292 290 286 282 279 276 275
138 135 132 131 134 138 142 139 135 147 170 197 208 215 222 234 253 260 263 246 268 277 284 290 289 288 294 313 311 308 306 305 294 290 289 286 262 250 255 272 279 284 289 296 298 299 300 302 305 309 310 305 301 296 293 292 291 291 292 294 295 295 293 289 284 280 276 272 273
154 147 139 135 142 152 161 167 171 180 192 205 215 227 237 247 252 262 270 107 150 187 223 255 263 275 310 348 325 313 306 298 271 255 259 264 254 247 249 263 277 285 291 297 300 300 301 302 305 309 312 307 304 298 296 298 298 297 296 298 298 296 293 288 283 279 275 270 274
159 151 145 146 159 169 177 183 192 196 199 201 216 230 240 239 235 242 62 77 106 136 168 214 243 268 329 352 324 311 305 302 277 243 239 253 262 268 271 267 278 285 291 297 299 300 300 302 306 311 314 310 308 304 302 304 304 303 302 302 301 299 296 292 287 283 279 275 277
154 151 154 163 172 177 181 189 199 203 201 198 211 222 225 220 202 94 67 69 89 113 148 207 250 283 326 342 314 308 308 307 295 273 258 267 279 287 290 281 284 287 290 294 297 298 300 303 308 313 316 315 313 311 309 311 309 307 306 304 302 301 298 296 293 290 288 287 285